Year,Month,Day,Hour,Minute,Value (Times are PST for windspeed in km/hr)
2007,05,07,00,00,3.20
2007,05,07,00,01,3.40
2007,05,07,00,02,3.70
2007,05,07,00,03,3.90
2007,05,07,00,04,4.80
2007,05,07,00,05,6.80
2007,05,07,00,06,6.90
2007,05,07,00,07,4.50
2007,05,07,00,08,4.20
2007,05,07,00,09,6.20
2007,05,07,00,10,4.70
2007,05,07,00,11,4.20
2007,05,07,00,12,3.10
2007,05,07,00,13,2.60
2007,05,07,00,14,3.00
2007,05,07,00,15,1.40
2007,05,07,00,16,3.00
2007,05,07,00,17,3.70
2007,05,07,00,18,3.10
2007,05,07,00,19,3.00
2007,05,07,00,20,3.60
2007,05,07,00,21,3.30
2007,05,07,00,22,2.70
2007,05,07,00,23,2.50
2007,05,07,00,24,2.90
2007,05,07,00,25,3.50
2007,05,07,00,26,2.50
2007,05,07,00,27,2.40
2007,05,07,00,28,2.30
2007,05,07,00,29,2.60
2007,05,07,00,30,1.10
2007,05,07,00,31,2.30
2007,05,07,00,32,0.60
2007,05,07,00,33,0.20
2007,05,07,00,34,1.00
2007,05,07,00,35,2.40
2007,05,07,00,36,2.40
2007,05,07,00,37,1.10
2007,05,07,00,38,2.60
2007,05,07,00,39,2.70
2007,05,07,00,40,2.60
2007,05,07,00,41,2.20
2007,05,07,00,42,2.40
2007,05,07,00,43,2.10
2007,05,07,00,44,2.30
2007,05,07,00,45,4.10
2007,05,07,00,46,3.70
2007,05,07,00,47,3.70
2007,05,07,00,48,4.00
2007,05,07,00,49,2.50
2007,05,07,00,50,2.10
2007,05,07,00,51,1.70
2007,05,07,00,52,0.90
2007,05,07,00,53,2.40
2007,05,07,00,54,0.80
2007,05,07,00,55,1.10
2007,05,07,00,56,0.10
2007,05,07,00,57,3.80
2007,05,07,00,58,3.90
2007,05,07,00,59,5.20
2007,05,07,01,00,2.00
2007,05,07,01,01,1.50
2007,05,07,01,02,1.30
2007,05,07,01,03,2.00
2007,05,07,01,04,0.50
2007,05,07,01,05,0.90
2007,05,07,01,06,0.70
2007,05,07,01,07,0.20
2007,05,07,01,08,0.00
2007,05,07,01,09,0.60
2007,05,07,01,10,2.30
2007,05,07,01,11,2.40
2007,05,07,01,12,1.80
2007,05,07,01,13,1.20
2007,05,07,01,14,0.00
2007,05,07,01,15,0.00
2007,05,07,01,16,0.10
2007,05,07,01,17,0.00
2007,05,07,01,18,0.00
2007,05,07,01,19,0.00
2007,05,07,01,20,0.00
2007,05,07,01,21,0.00
2007,05,07,01,22,0.40
2007,05,07,01,23,0.20
2007,05,07,01,24,1.80
2007,05,07,01,25,0.80
2007,05,07,01,26,0.00
2007,05,07,01,27,0.00
2007,05,07,01,28,0.00
2007,05,07,01,29,0.00
2007,05,07,01,30,0.00
2007,05,07,01,31,0.10
2007,05,07,01,32,0.00
2007,05,07,01,33,1.80
2007,05,07,01,34,2.20
2007,05,07,01,35,2.30
2007,05,07,01,36,0.40
2007,05,07,01,37,1.20
2007,05,07,01,38,1.10
2007,05,07,01,39,1.80
2007,05,07,01,40,3.30
2007,05,07,01,41,4.30
2007,05,07,01,42,3.40
2007,05,07,01,43,2.10
2007,05,07,01,44,2.40
2007,05,07,01,45,1.60
2007,05,07,01,46,1.00
2007,05,07,01,47,1.30
2007,05,07,01,48,3.80
2007,05,07,01,49,4.50
2007,05,07,01,50,4.50
2007,05,07,01,51,4.30
2007,05,07,01,52,1.90
2007,05,07,01,53,1.90
2007,05,07,01,54,2.20
2007,05,07,01,55,0.20
2007,05,07,01,56,0.50
2007,05,07,01,57,1.80
2007,05,07,01,58,1.20
2007,05,07,01,59,1.50
2007,05,07,02,00,3.10
2007,05,07,02,01,2.30
2007,05,07,02,02,1.80
2007,05,07,02,03,1.60
2007,05,07,02,04,1.60
2007,05,07,02,05,1.50
2007,05,07,02,06,1.00
2007,05,07,02,07,1.50
2007,05,07,02,08,1.40
2007,05,07,02,09,2.60
2007,05,07,02,10,3.70
2007,05,07,02,11,4.40
2007,05,07,02,12,3.30
2007,05,07,02,13,2.20
2007,05,07,02,14,1.30
2007,05,07,02,15,1.80
2007,05,07,02,16,2.00
2007,05,07,02,17,2.00
2007,05,07,02,18,3.10
2007,05,07,02,19,0.20
2007,05,07,02,20,1.60
2007,05,07,02,21,1.00
2007,05,07,02,22,1.70
2007,05,07,02,23,2.50
2007,05,07,02,24,0.50
2007,05,07,02,25,2.30
2007,05,07,02,26,2.20
2007,05,07,02,27,2.70
2007,05,07,02,28,2.30
2007,05,07,02,29,1.00
2007,05,07,02,30,1.80
2007,05,07,02,31,2.80
2007,05,07,02,32,2.80
2007,05,07,02,33,2.30
2007,05,07,02,34,0.90
2007,05,07,02,35,3.00
2007,05,07,02,36,0.80
2007,05,07,02,37,3.10
2007,05,07,02,38,2.80
2007,05,07,02,39,2.50
2007,05,07,02,40,2.10
2007,05,07,02,41,3.80
2007,05,07,02,42,4.00
2007,05,07,02,43,5.10
2007,05,07,02,44,4.30
2007,05,07,02,45,1.50
2007,05,07,02,46,2.80
2007,05,07,02,47,2.20
2007,05,07,02,48,1.10
2007,05,07,02,49,1.50
2007,05,07,02,50,3.80
2007,05,07,02,51,2.40
2007,05,07,02,52,2.70
2007,05,07,02,53,0.90
2007,05,07,02,54,1.40
2007,05,07,02,55,0.00
2007,05,07,02,56,0.50
2007,05,07,02,57,2.00
2007,05,07,02,58,2.70
2007,05,07,02,59,1.30
2007,05,07,03,00,0.00
2007,05,07,03,01,0.00
2007,05,07,03,02,0.00
2007,05,07,03,03,0.00
2007,05,07,03,04,2.50
2007,05,07,03,05,3.50
2007,05,07,03,06,1.40
2007,05,07,03,07,1.50
2007,05,07,03,08,0.40
2007,05,07,03,09,0.00
2007,05,07,03,10,0.40
2007,05,07,03,11,1.10
2007,05,07,03,12,0.00
2007,05,07,03,13,2.30
2007,05,07,03,14,2.70
2007,05,07,03,15,3.20
2007,05,07,03,16,3.00
2007,05,07,03,17,2.80
2007,05,07,03,18,2.10
2007,05,07,03,19,2.00
2007,05,07,03,20,2.90
2007,05,07,03,21,2.60
2007,05,07,03,22,1.60
2007,05,07,03,23,1.60
2007,05,07,03,24,1.60
2007,05,07,03,25,1.60
2007,05,07,03,26,1.50
2007,05,07,03,27,0.10
2007,05,07,03,28,0.70
2007,05,07,03,29,1.60
2007,05,07,03,30,0.30
2007,05,07,03,31,0.70
2007,05,07,03,32,1.00
2007,05,07,03,33,1.70
2007,05,07,03,34,1.30
2007,05,07,03,35,0.60
2007,05,07,03,36,0.00
2007,05,07,03,37,0.00
2007,05,07,03,38,0.00
2007,05,07,03,39,0.30
2007,05,07,03,40,2.70
2007,05,07,03,41,1.70
2007,05,07,03,42,1.50
2007,05,07,03,43,0.00
2007,05,07,03,44,0.00
2007,05,07,03,45,0.00
2007,05,07,03,46,0.00
2007,05,07,03,47,0.00
2007,05,07,03,48,0.00
2007,05,07,03,49,0.00
2007,05,07,03,50,0.10
2007,05,07,03,51,1.60
2007,05,07,03,52,0.00
2007,05,07,03,53,0.10
2007,05,07,03,54,0.00
2007,05,07,03,55,0.00
2007,05,07,03,56,0.00
2007,05,07,03,57,0.00
2007,05,07,03,58,0.00
2007,05,07,03,59,1.70
2007,05,07,04,00,0.60
2007,05,07,04,01,0.00
2007,05,07,04,02,0.00
2007,05,07,04,03,0.00
2007,05,07,04,04,0.70
2007,05,07,04,05,0.00
2007,05,07,04,06,1.30
2007,05,07,04,07,1.10
2007,05,07,04,08,2.10
2007,05,07,04,09,1.80
2007,05,07,04,10,1.30
2007,05,07,04,11,0.30
2007,05,07,04,12,2.80
2007,05,07,04,13,3.70
2007,05,07,04,14,2.70
2007,05,07,04,15,0.10
2007,05,07,04,16,2.00
2007,05,07,04,17,1.00
2007,05,07,04,18,0.60
2007,05,07,04,19,1.30
2007,05,07,04,20,0.90
2007,05,07,04,21,0.10
2007,05,07,04,22,0.00
2007,05,07,04,23,0.80
2007,05,07,04,24,1.50
2007,05,07,04,25,3.00
2007,05,07,04,26,3.90
2007,05,07,04,27,3.80
2007,05,07,04,28,1.80
2007,05,07,04,29,0.30
2007,05,07,04,30,0.00
2007,05,07,04,31,1.50
2007,05,07,04,32,1.70
2007,05,07,04,33,0.10
2007,05,07,04,34,1.00
2007,05,07,04,35,2.60
2007,05,07,04,36,1.80
2007,05,07,04,37,1.00
2007,05,07,04,38,0.00
2007,05,07,04,39,1.50
2007,05,07,04,40,0.50
2007,05,07,04,41,0.50
2007,05,07,04,42,0.30
2007,05,07,04,43,2.30
2007,05,07,04,44,3.10
2007,05,07,04,45,3.40
2007,05,07,04,46,4.10
2007,05,07,04,47,5.00
2007,05,07,04,48,3.50
2007,05,07,04,49,2.00
2007,05,07,04,50,1.30
2007,05,07,04,51,2.30
2007,05,07,04,52,1.90
2007,05,07,04,53,0.10
2007,05,07,04,54,0.00
2007,05,07,04,55,0.10
2007,05,07,04,56,1.10
2007,05,07,04,57,1.80
2007,05,07,04,58,1.50
2007,05,07,04,59,1.60
2007,05,07,05,00,1.10
2007,05,07,05,01,2.10
2007,05,07,05,02,0.80
2007,05,07,05,03,2.20
2007,05,07,05,04,0.50
2007,05,07,05,05,1.10
2007,05,07,05,06,3.00
2007,05,07,05,07,2.20
2007,05,07,05,08,1.20
2007,05,07,05,09,1.10
2007,05,07,05,10,0.10
2007,05,07,05,11,0.10
2007,05,07,05,12,1.20
2007,05,07,05,13,1.10
2007,05,07,05,14,1.60
2007,05,07,05,15,1.00
2007,05,07,05,16,0.30
2007,05,07,05,17,0.10
2007,05,07,05,18,0.70
2007,05,07,05,19,1.20
2007,05,07,05,20,0.10
2007,05,07,05,21,0.10
2007,05,07,05,22,0.00
2007,05,07,05,23,0.00
2007,05,07,05,24,0.90
2007,05,07,05,25,1.20
2007,05,07,05,26,0.00
2007,05,07,05,27,1.70
2007,05,07,05,28,1.50
2007,05,07,05,29,1.40
2007,05,07,05,30,0.60
2007,05,07,05,31,3.20
2007,05,07,05,32,2.70
2007,05,07,05,33,2.20
2007,05,07,05,34,1.80
2007,05,07,05,35,0.70
2007,05,07,05,36,0.40
2007,05,07,05,37,0.10
2007,05,07,05,38,1.30
2007,05,07,05,39,1.50
2007,05,07,05,40,1.90
2007,05,07,05,41,0.20
2007,05,07,05,42,0.00
2007,05,07,05,43,0.40
2007,05,07,05,44,0.50
2007,05,07,05,45,0.00
2007,05,07,05,46,0.30
2007,05,07,05,47,0.70
2007,05,07,05,48,1.60
2007,05,07,05,49,0.50
2007,05,07,05,50,0.00
2007,05,07,05,51,0.10
2007,05,07,05,52,0.00
2007,05,07,05,53,0.10
2007,05,07,05,54,0.00
2007,05,07,05,55,0.00
2007,05,07,05,56,0.00
2007,05,07,05,57,0.00
2007,05,07,05,58,0.00
2007,05,07,05,59,0.00
2007,05,07,06,00,0.00
2007,05,07,06,01,0.00
2007,05,07,06,02,0.00
2007,05,07,06,03,0.10
2007,05,07,06,04,2.40
2007,05,07,06,05,2.70
2007,05,07,06,06,1.30
2007,05,07,06,07,0.20
2007,05,07,06,08,0.00
2007,05,07,06,09,0.00
2007,05,07,06,10,0.00
2007,05,07,06,11,0.00
2007,05,07,06,12,0.90
2007,05,07,06,13,1.00
2007,05,07,06,14,0.20
2007,05,07,06,15,0.10
2007,05,07,06,16,0.10
2007,05,07,06,17,0.00
2007,05,07,06,18,0.00
2007,05,07,06,19,0.00
2007,05,07,06,20,0.00
2007,05,07,06,21,0.00
2007,05,07,06,22,1.50
2007,05,07,06,23,1.80
2007,05,07,06,24,2.30
2007,05,07,06,25,2.50
2007,05,07,06,26,2.80
2007,05,07,06,27,4.10
2007,05,07,06,28,2.10
2007,05,07,06,29,0.00
2007,05,07,06,30,0.00
2007,05,07,06,31,0.00
2007,05,07,06,32,1.00
2007,05,07,06,33,1.60
2007,05,07,06,34,1.60
2007,05,07,06,35,2.40
2007,05,07,06,36,0.20
2007,05,07,06,37,1.10
2007,05,07,06,38,0.60
2007,05,07,06,39,1.60
2007,05,07,06,40,1.80
2007,05,07,06,41,0.60
2007,05,07,06,42,0.90
2007,05,07,06,43,1.60
2007,05,07,06,44,2.20
2007,05,07,06,45,0.80
2007,05,07,06,46,2.40
2007,05,07,06,47,3.70
2007,05,07,06,48,3.20
2007,05,07,06,49,0.90
2007,05,07,06,50,3.00
2007,05,07,06,51,1.50
2007,05,07,06,52,1.10
2007,05,07,06,53,1.30
2007,05,07,06,54,0.80
2007,05,07,06,55,0.10
2007,05,07,06,56,1.80
2007,05,07,06,57,1.80
2007,05,07,06,58,0.20
2007,05,07,06,59,0.00
2007,05,07,07,00,0.60
2007,05,07,07,01,2.90
2007,05,07,07,02,3.20
2007,05,07,07,03,2.10
2007,05,07,07,04,1.50
2007,05,07,07,05,3.00
2007,05,07,07,06,1.10
2007,05,07,07,07,1.10
2007,05,07,07,08,4.40
2007,05,07,07,09,3.40
2007,05,07,07,10,1.30
2007,05,07,07,11,1.20
2007,05,07,07,12,1.60
2007,05,07,07,13,2.90
2007,05,07,07,14,1.60
2007,05,07,07,15,1.70
2007,05,07,07,16,1.00
2007,05,07,07,17,1.90
2007,05,07,07,18,1.90
2007,05,07,07,19,2.10
2007,05,07,07,20,2.10
2007,05,07,07,21,0.10
2007,05,07,07,22,1.40
2007,05,07,07,23,2.30
2007,05,07,07,24,2.30
2007,05,07,07,25,1.20
2007,05,07,07,26,3.60
2007,05,07,07,27,4.90
2007,05,07,07,28,2.10
2007,05,07,07,29,2.90
2007,05,07,07,30,2.10
2007,05,07,07,31,2.60
2007,05,07,07,32,3.40
2007,05,07,07,33,3.40
2007,05,07,07,34,2.60
2007,05,07,07,35,5.50
2007,05,07,07,36,5.00
2007,05,07,07,37,5.50
2007,05,07,07,38,5.00
2007,05,07,07,39,5.70
2007,05,07,07,40,5.60
2007,05,07,07,41,4.80
2007,05,07,07,42,4.80
2007,05,07,07,43,4.60
2007,05,07,07,44,3.10
2007,05,07,07,45,2.00
2007,05,07,07,46,2.10
2007,05,07,07,47,3.50
2007,05,07,07,48,4.40
2007,05,07,07,49,3.20
2007,05,07,07,50,3.80
2007,05,07,07,51,3.60
2007,05,07,07,52,5.00
2007,05,07,07,53,3.90
2007,05,07,07,54,2.80
2007,05,07,07,55,3.60
2007,05,07,07,56,5.00
2007,05,07,07,57,8.30
2007,05,07,07,58,5.00
2007,05,07,07,59,6.10
2007,05,07,08,00,6.30
2007,05,07,08,01,5.00
2007,05,07,08,02,7.40
2007,05,07,08,03,8.00
2007,05,07,08,04,6.60
2007,05,07,08,05,6.70
2007,05,07,08,06,4.40
2007,05,07,08,07,3.00
2007,05,07,08,08,3.80
2007,05,07,08,09,4.50
2007,05,07,08,10,2.60
2007,05,07,08,11,3.80
2007,05,07,08,12,0.80
2007,05,07,08,13,1.90
2007,05,07,08,14,2.10
2007,05,07,08,15,4.50
2007,05,07,08,16,3.90
2007,05,07,08,17,5.30
2007,05,07,08,18,4.10
2007,05,07,08,19,3.10
2007,05,07,08,20,2.30
2007,05,07,08,21,2.00
2007,05,07,08,22,4.30
2007,05,07,08,23,4.10
2007,05,07,08,24,0.80
2007,05,07,08,25,1.00
2007,05,07,08,26,0.60
2007,05,07,08,27,1.30
2007,05,07,08,28,4.00
2007,05,07,08,29,1.50
2007,05,07,08,30,3.70
2007,05,07,08,31,3.90
2007,05,07,08,32,5.70
2007,05,07,08,33,3.40
2007,05,07,08,34,1.70
2007,05,07,08,35,3.40
2007,05,07,08,36,8.50
2007,05,07,08,37,8.30
2007,05,07,08,38,8.60
2007,05,07,08,39,7.40
2007,05,07,08,40,6.60
2007,05,07,08,41,7.30
2007,05,07,08,42,8.10
2007,05,07,08,43,6.70
2007,05,07,08,44,4.80
2007,05,07,08,45,6.70
2007,05,07,08,46,5.60
2007,05,07,08,47,5.60
2007,05,07,08,48,9.00
2007,05,07,08,49,8.10
2007,05,07,08,50,6.40
2007,05,07,08,51,5.90
2007,05,07,08,52,2.40
2007,05,07,08,53,2.50
2007,05,07,08,54,4.30
2007,05,07,08,55,9.20
2007,05,07,08,56,7.10
2007,05,07,08,57,8.60
2007,05,07,08,58,6.00
2007,05,07,08,59,5.80
2007,05,07,09,00,7.90
2007,05,07,09,01,7.60
2007,05,07,09,02,5.80
2007,05,07,09,03,6.20
2007,05,07,09,04,8.90
2007,05,07,09,05,10.40
2007,05,07,09,06,8.50
2007,05,07,09,07,7.80
2007,05,07,09,08,7.70
2007,05,07,09,09,8.50
2007,05,07,09,10,7.40
2007,05,07,09,11,5.20
2007,05,07,09,12,8.90
2007,05,07,09,13,5.60
2007,05,07,09,14,5.20
2007,05,07,09,15,4.40
2007,05,07,09,16,3.80
2007,05,07,09,17,6.10
2007,05,07,09,18,7.00
2007,05,07,09,19,6.40
2007,05,07,09,20,9.20
2007,05,07,09,21,8.90
2007,05,07,09,22,9.00
2007,05,07,09,23,7.70
2007,05,07,09,24,10.40
2007,05,07,09,25,10.20
2007,05,07,09,26,7.40
2007,05,07,09,27,7.60
2007,05,07,09,28,6.60
2007,05,07,09,29,3.40
2007,05,07,09,30,8.30
2007,05,07,09,31,6.00
2007,05,07,09,32,6.30
2007,05,07,09,33,7.70
2007,05,07,09,34,3.50
2007,05,07,09,35,2.10
2007,05,07,09,36,3.90
2007,05,07,09,37,8.10
2007,05,07,09,38,5.90
2007,05,07,09,39,6.40
2007,05,07,09,40,6.20
2007,05,07,09,41,3.00
2007,05,07,09,42,1.50
2007,05,07,09,43,2.00
2007,05,07,09,44,4.00
2007,05,07,09,45,5.30
2007,05,07,09,46,4.20
2007,05,07,09,47,9.10
2007,05,07,09,48,9.40
2007,05,07,09,49,10.00
2007,05,07,09,50,4.70
2007,05,07,09,51,4.80
2007,05,07,09,52,4.80
2007,05,07,09,53,5.60
2007,05,07,09,54,6.90
2007,05,07,09,55,8.00
2007,05,07,09,56,6.80
2007,05,07,09,57,7.40
2007,05,07,09,58,8.00
2007,05,07,09,59,9.60
2007,05,07,10,00,9.70
2007,05,07,10,01,7.40
2007,05,07,10,02,6.90
2007,05,07,10,03,9.30
2007,05,07,10,04,7.40
2007,05,07,10,05,5.00
2007,05,07,10,06,2.60
2007,05,07,10,07,2.10
2007,05,07,10,08,7.20
2007,05,07,10,09,5.00
2007,05,07,10,10,8.10
2007,05,07,10,11,8.10
2007,05,07,10,12,8.20
2007,05,07,10,13,9.60
2007,05,07,10,14,7.40
2007,05,07,10,15,4.10
2007,05,07,10,16,9.90
2007,05,07,10,17,12.00
2007,05,07,10,18,7.30
2007,05,07,10,19,6.50
2007,05,07,10,20,7.10
2007,05,07,10,21,7.00
2007,05,07,10,22,4.50
2007,05,07,10,23,3.40
2007,05,07,10,24,2.40
2007,05,07,10,25,6.60
2007,05,07,10,26,2.50
2007,05,07,10,27,6.70
2007,05,07,10,28,7.50
2007,05,07,10,29,8.30
2007,05,07,10,30,7.10
2007,05,07,10,31,8.30
2007,05,07,10,32,6.40
2007,05,07,10,33,8.70
2007,05,07,10,34,4.80
2007,05,07,10,35,8.70
2007,05,07,10,36,6.90
2007,05,07,10,37,4.90
2007,05,07,10,38,5.40
2007,05,07,10,39,8.00
2007,05,07,10,40,10.80
2007,05,07,10,41,7.20
2007,05,07,10,42,6.40
2007,05,07,10,43,9.00
2007,05,07,10,44,7.60
2007,05,07,10,45,5.00
2007,05,07,10,46,6.40
2007,05,07,10,47,4.10
2007,05,07,10,48,9.00
2007,05,07,10,49,7.80
2007,05,07,10,50,6.20
2007,05,07,10,51,6.90
2007,05,07,10,52,6.90
2007,05,07,10,53,5.70
2007,05,07,10,54,6.80
2007,05,07,10,55,7.10
2007,05,07,10,56,3.30
2007,05,07,10,57,5.30
2007,05,07,10,58,4.10
2007,05,07,10,59,4.80
2007,05,07,11,00,3.80
2007,05,07,11,01,6.80
2007,05,07,11,02,5.60
2007,05,07,11,03,2.90
2007,05,07,11,04,5.50
2007,05,07,11,05,10.20
2007,05,07,11,06,7.80
2007,05,07,11,07,4.00
2007,05,07,11,08,5.10
2007,05,07,11,09,5.50
2007,05,07,11,10,7.90
2007,05,07,11,11,6.20
2007,05,07,11,12,11.10
2007,05,07,11,13,8.60
2007,05,07,11,14,8.50
2007,05,07,11,15,5.00
2007,05,07,11,16,7.20
2007,05,07,11,17,8.50
2007,05,07,11,18,8.00
2007,05,07,11,19,7.20
2007,05,07,11,20,5.50
2007,05,07,11,21,7.20
2007,05,07,11,22,5.70
2007,05,07,11,23,7.20
2007,05,07,11,24,4.10
2007,05,07,11,25,6.70
2007,05,07,11,26,5.80
2007,05,07,11,27,4.30
2007,05,07,11,28,4.80
2007,05,07,11,29,4.20
2007,05,07,11,30,5.00
2007,05,07,11,31,8.30
2007,05,07,11,32,8.10
2007,05,07,11,33,4.60
2007,05,07,11,34,6.10
2007,05,07,11,35,7.30
2007,05,07,11,36,6.90
2007,05,07,11,37,4.80
2007,05,07,11,38,7.00
2007,05,07,11,39,5.10
2007,05,07,11,40,4.60
2007,05,07,11,41,7.10
2007,05,07,11,42,5.20
2007,05,07,11,43,7.00
2007,05,07,11,44,10.90
2007,05,07,11,45,7.90
2007,05,07,11,46,7.20
2007,05,07,11,47,7.10
2007,05,07,11,48,7.10
2007,05,07,11,49,8.00
2007,05,07,11,50,10.50
2007,05,07,11,51,8.30
2007,05,07,11,52,14.40
2007,05,07,11,53,2.90
2007,05,07,11,54,6.00
2007,05,07,11,55,5.60
2007,05,07,11,56,9.20
2007,05,07,11,57,8.90
2007,05,07,11,58,7.80
2007,05,07,11,59,8.30
2007,05,07,12,00,10.70
2007,05,07,12,01,9.40
2007,05,07,12,02,7.60
2007,05,07,12,03,5.70
2007,05,07,12,04,6.50
2007,05,07,12,05,7.20
2007,05,07,12,06,7.90
2007,05,07,12,07,5.70
2007,05,07,12,08,3.10
2007,05,07,12,09,9.20
2007,05,07,12,10,7.70
2007,05,07,12,11,9.50
2007,05,07,12,12,6.40
2007,05,07,12,13,9.30
2007,05,07,12,14,8.50
2007,05,07,12,15,7.90
2007,05,07,12,16,9.40
2007,05,07,12,17,7.20
2007,05,07,12,18,6.20
2007,05,07,12,19,6.70
2007,05,07,12,20,6.20
2007,05,07,12,21,5.60
2007,05,07,12,22,7.70
2007,05,07,12,23,7.90
2007,05,07,12,24,7.10
2007,05,07,12,25,7.60
2007,05,07,12,26,4.60
2007,05,07,12,27,5.30
2007,05,07,12,28,5.30
2007,05,07,12,29,4.80
2007,05,07,12,30,6.70
2007,05,07,12,31,4.80
2007,05,07,12,32,8.70
2007,05,07,12,33,7.30
2007,05,07,12,34,5.50
2007,05,07,12,35,5.30
2007,05,07,12,36,9.90
2007,05,07,12,37,8.30
2007,05,07,12,38,5.30
2007,05,07,12,39,6.00
2007,05,07,12,40,7.10
2007,05,07,12,41,8.10
2007,05,07,12,42,7.40
2007,05,07,12,43,6.10
2007,05,07,12,44,9.90
2007,05,07,12,45,4.60
2007,05,07,12,46,6.20
2007,05,07,12,47,7.10
2007,05,07,12,48,4.00
2007,05,07,12,49,6.10
2007,05,07,12,50,5.90
2007,05,07,12,51,3.80
2007,05,07,12,52,3.60
2007,05,07,12,53,6.60
2007,05,07,12,54,7.40
2007,05,07,12,55,8.00
2007,05,07,12,56,6.70
2007,05,07,12,57,7.60
2007,05,07,12,58,6.20
2007,05,07,12,59,6.00
2007,05,07,13,00,5.20
2007,05,07,13,01,7.20
2007,05,07,13,02,5.80
2007,05,07,13,03,4.60
2007,05,07,13,04,6.90
2007,05,07,13,05,7.90
2007,05,07,13,06,7.40
2007,05,07,13,07,9.90
2007,05,07,13,08,7.90
2007,05,07,13,09,9.60
2007,05,07,13,10,9.60
2007,05,07,13,11,10.80
2007,05,07,13,12,10.80
2007,05,07,13,13,8.30
2007,05,07,13,14,3.90
2007,05,07,13,15,8.30
2007,05,07,13,16,9.00
2007,05,07,13,17,6.60
2007,05,07,13,18,9.00
2007,05,07,13,19,9.10
2007,05,07,13,20,8.10
2007,05,07,13,21,8.10
2007,05,07,13,22,8.10
2007,05,07,13,23,8.10
2007,05,07,13,24,8.10
2007,05,07,13,25,7.30
2007,05,07,13,26,3.10
2007,05,07,13,27,10.80
2007,05,07,13,28,12.20
2007,05,07,13,29,7.40
2007,05,07,13,30,7.70
2007,05,07,13,31,6.40
2007,05,07,13,32,7.60
2007,05,07,13,33,5.80
2007,05,07,13,34,8.70
2007,05,07,13,35,5.90
2007,05,07,13,36,6.90
2007,05,07,13,37,7.80
2007,05,07,13,38,6.40
2007,05,07,13,39,7.90
2007,05,07,13,40,7.30
2007,05,07,13,41,4.80
2007,05,07,13,42,6.20
2007,05,07,13,43,7.00
2007,05,07,13,44,7.50
2007,05,07,13,45,9.30
2007,05,07,13,46,6.90
2007,05,07,13,47,7.30
2007,05,07,13,48,10.00
2007,05,07,13,49,8.10
2007,05,07,13,50,6.80
2007,05,07,13,51,7.20
2007,05,07,13,52,8.70
2007,05,07,13,53,9.70
2007,05,07,13,54,8.20
2007,05,07,13,55,9.60
2007,05,07,13,56,10.50
2007,05,07,13,57,8.80
2007,05,07,13,58,8.80
2007,05,07,13,59,8.80
2007,05,07,14,00,4.20
2007,05,07,14,01,6.70
2007,05,07,14,02,7.00
2007,05,07,14,03,10.50
2007,05,07,14,04,10.90
2007,05,07,14,05,6.80
2007,05,07,14,06,7.40
2007,05,07,14,07,8.20
2007,05,07,14,08,9.10
2007,05,07,14,09,8.70
2007,05,07,14,10,10.50
2007,05,07,14,11,9.30
2007,05,07,14,12,6.80
2007,05,07,14,13,6.20
2007,05,07,14,14,4.30
2007,05,07,14,15,6.30
2007,05,07,14,16,9.90
2007,05,07,14,17,10.00
2007,05,07,14,18,7.00
2007,05,07,14,19,7.40
2007,05,07,14,20,8.00
2007,05,07,14,21,7.70
2007,05,07,14,22,6.40
2007,05,07,14,23,9.30
2007,05,07,14,24,5.80
2007,05,07,14,25,8.40
2007,05,07,14,26,8.10
2007,05,07,14,27,7.60
2007,05,07,14,28,6.70
2007,05,07,14,29,6.40
2007,05,07,14,30,10.60
2007,05,07,14,31,8.60
2007,05,07,14,32,5.30
2007,05,07,14,33,7.60
2007,05,07,14,34,5.50
2007,05,07,14,35,8.50
2007,05,07,14,36,8.60
2007,05,07,14,37,4.80
2007,05,07,14,38,7.10
2007,05,07,14,39,7.00
2007,05,07,14,40,4.80
2007,05,07,14,41,4.70
2007,05,07,14,42,7.00
2007,05,07,14,43,7.90
2007,05,07,14,44,4.70
2007,05,07,14,45,8.40
2007,05,07,14,46,6.60
2007,05,07,14,47,8.10
2007,05,07,14,48,5.40
2007,05,07,14,49,6.40
2007,05,07,14,50,5.60
2007,05,07,14,51,7.50
2007,05,07,14,52,5.20
2007,05,07,14,53,6.10
2007,05,07,14,54,2.40
2007,05,07,14,55,4.80
2007,05,07,14,56,6.70
2007,05,07,14,57,8.20
2007,05,07,14,58,8.10
2007,05,07,14,59,6.20
2007,05,07,15,00,6.30
2007,05,07,15,01,4.60
2007,05,07,15,02,4.80
2007,05,07,15,03,4.80
2007,05,07,15,04,4.80
2007,05,07,15,05,4.80
2007,05,07,15,06,4.80
2007,05,07,15,07,4.80
2007,05,07,15,08,6.60
2007,05,07,15,09,5.90
2007,05,07,15,10,7.50
2007,05,07,15,11,7.00
2007,05,07,15,12,8.90
2007,05,07,15,13,9.30
2007,05,07,15,14,9.00
2007,05,07,15,15,3.40
2007,05,07,15,16,7.10
2007,05,07,15,17,7.10
2007,05,07,15,18,4.80
2007,05,07,15,19,5.80
2007,05,07,15,20,9.10
2007,05,07,15,21,8.50
2007,05,07,15,22,8.40
2007,05,07,15,23,7.60
2007,05,07,15,24,9.70
2007,05,07,15,25,8.30
2007,05,07,15,26,11.30
2007,05,07,15,27,6.50
2007,05,07,15,28,7.80
2007,05,07,15,29,7.10
2007,05,07,15,30,4.80
2007,05,07,15,31,5.80
2007,05,07,15,32,5.00
2007,05,07,15,33,3.70
2007,05,07,15,34,7.00
2007,05,07,15,35,7.90
2007,05,07,15,36,8.90
2007,05,07,15,37,5.20
2007,05,07,15,38,6.60
2007,05,07,15,39,3.10
2007,05,07,15,40,2.00
2007,05,07,15,41,6.90
2007,05,07,15,42,2.00
2007,05,07,15,43,2.80
2007,05,07,15,44,2.60
2007,05,07,15,45,5.00
2007,05,07,15,46,8.80
2007,05,07,15,47,5.20
2007,05,07,15,48,4.70
2007,05,07,15,49,7.70
2007,05,07,15,50,3.30
2007,05,07,15,51,4.70
2007,05,07,15,52,6.40
2007,05,07,15,53,7.60
2007,05,07,15,54,6.40
2007,05,07,15,55,8.90
2007,05,07,15,56,8.10
2007,05,07,15,57,5.20
2007,05,07,15,58,4.80
2007,05,07,15,59,6.80
2007,05,07,16,00,9.20
2007,05,07,16,01,3.90
2007,05,07,16,02,5.90
2007,05,07,16,03,5.30
2007,05,07,16,04,8.20
2007,05,07,16,05,6.00
2007,05,07,16,06,7.30
2007,05,07,16,07,7.70
2007,05,07,16,08,8.50
2007,05,07,16,09,9.20
2007,05,07,16,10,6.10
2007,05,07,16,11,6.90
2007,05,07,16,12,9.70
2007,05,07,16,13,4.10
2007,05,07,16,14,5.90
2007,05,07,16,15,5.60
2007,05,07,16,16,9.80
2007,05,07,16,17,9.30
2007,05,07,16,18,13.50
2007,05,07,16,19,8.90
2007,05,07,16,20,9.40
2007,05,07,16,21,16.20
2007,05,07,16,22,8.80
2007,05,07,16,23,10.90
2007,05,07,16,24,9.50
2007,05,07,16,25,9.70
2007,05,07,16,26,13.30
2007,05,07,16,27,13.60
2007,05,07,16,28,15.50
2007,05,07,16,29,11.70
2007,05,07,16,30,17.80
2007,05,07,16,31,15.50
2007,05,07,16,32,20.90
2007,05,07,16,33,20.90
2007,05,07,16,34,20.90
2007,05,07,16,35,10.70
2007,05,07,16,36,9.40
2007,05,07,16,37,19.80
2007,05,07,16,38,16.30
2007,05,07,16,39,13.90
2007,05,07,16,40,6.40
2007,05,07,16,41,10.30
2007,05,07,16,42,17.30
2007,05,07,16,43,11.30
2007,05,07,16,44,14.20
2007,05,07,16,45,16.80
2007,05,07,16,46,12.40
2007,05,07,16,47,12.70
2007,05,07,16,48,10.80
2007,05,07,16,49,16.30
2007,05,07,16,50,15.70
2007,05,07,16,51,18.80
2007,05,07,16,52,12.20
2007,05,07,16,53,19.60
2007,05,07,16,54,15.70
2007,05,07,16,55,17.80
2007,05,07,16,56,12.80
2007,05,07,16,57,14.10
2007,05,07,16,58,18.70
2007,05,07,16,59,18.20
2007,05,07,17,00,12.10
2007,05,07,17,01,12.50
2007,05,07,17,02,17.90
2007,05,07,17,03,20.50
2007,05,07,17,04,15.30
2007,05,07,17,05,18.70
2007,05,07,17,06,15.80
2007,05,07,17,07,18.90
2007,05,07,17,08,6.10
2007,05,07,17,09,16.00
2007,05,07,17,10,17.30
2007,05,07,17,11,16.60
2007,05,07,17,12,16.30
2007,05,07,17,13,17.10
2007,05,07,17,14,9.70
2007,05,07,17,15,17.60
2007,05,07,17,16,17.20
2007,05,07,17,17,16.10
2007,05,07,17,18,12.60
2007,05,07,17,19,16.80
2007,05,07,17,20,20.20
2007,05,07,17,21,16.00
2007,05,07,17,22,15.00
2007,05,07,17,23,11.10
2007,05,07,17,24,15.00
2007,05,07,17,25,11.10
2007,05,07,17,26,14.90
2007,05,07,17,27,17.10
2007,05,07,17,28,20.60
2007,05,07,17,29,13.80
2007,05,07,17,30,10.30
2007,05,07,17,31,13.00
2007,05,07,17,32,15.30
2007,05,07,17,33,19.10
2007,05,07,17,34,17.20
2007,05,07,17,35,12.80
2007,05,07,17,36,16.50
2007,05,07,17,37,18.80
2007,05,07,17,38,14.60
2007,05,07,17,39,23.00
2007,05,07,17,40,14.80
2007,05,07,17,41,16.80
2007,05,07,17,42,21.30
2007,05,07,17,43,18.10
2007,05,07,17,44,12.20
2007,05,07,17,45,9.70
2007,05,07,17,46,9.00
2007,05,07,17,47,9.90
2007,05,07,17,48,12.20
2007,05,07,17,49,8.70
2007,05,07,17,50,12.00
2007,05,07,17,51,13.40
2007,05,07,17,52,12.20
2007,05,07,17,53,20.50
2007,05,07,17,54,19.80
2007,05,07,17,55,20.10
2007,05,07,17,56,15.00
2007,05,07,17,57,11.30
2007,05,07,17,58,14.40
2007,05,07,17,59,18.20
2007,05,07,18,00,18.30
2007,05,07,18,01,16.20